Résultats de la compétition "WRE Sprint Nocturne Annecy 02/10/2010" du 02-10-2010 organisée par le comité départemental du 74 - Haute-Savoie
     
  Télécharger le fichier CSV.  
     
     

 Circuit "D"

Licence Nom Prénom Temps CN
précédent
Score sur
la course
Différence
15979POIROTDelphine0:11:4943634513+150
13076MARCHEGAYTiphane0:11:5550204475-545
9932BASSETIsia0:12:1652964347-949
11307BEAUVISAGELauriane0:12:3052904266-1024
8922ROULLEAUXNoemie0:12:5347924139-653
11559ROULLEAUXJulie0:13:2039193999+80
18432HUMMEL-AZAISMargaux0:13:2136293994+365
7715SANDEVOIRClaire0:13:3756883916-1772
16070RICHINMarion0:13:3841453911-234
7672DEVRIEUXNais0:13:4141553897-258
7045LOTERIELaurine0:13:4343743888-486
17418LAFARGEEmeline0:13:4832283864+636
9976POINSIGNONElise0:13:5448363836-1000
8551CLOUARDLucile0:14:0539323786-146
10396HABERKORNChloé0:14:1338213751-70
8108LELOUPAnouk0:14:1653763738-1638
1156DELIMathilde0:14:4238733628-245
7711DENAIXLou0:14:5238903587-303
16357MAISONNEUVEValentine0:14:5734773567+90
21435DEFIXAnne Claire0:15:2427693463+694
10863DEJARDINEmilie0:15:3428123426+614
14738BIHELJulia0:15:4339053393-512
13800DELENNECamillia0:15:4524553386+931
17925DROINSolene0:16:1624793278+799
16555PICAZOMarie0:16:1729273275+348
10072BACHERAmelie0:16:2526153248+633
20484KASTENSSONEllen0:16:4730583177+119
20410FALCOZEstelle0:16:4923433171+828
9402BORNARDJulie0:16:5919893140+1151
10091LUTHRINGERColine0:17:4721022999+897
10412LELOUPGaelle0:17:5720122971+959
11385GONNEAUDPerrine0:18:0624422946+504
19486BISSIERECamille0:18:1529742922-52
22451RIVOLLIERIsaline0:18:1602919N/A
10077POURREMarion0:18:2335842901-683
9506PELUSOSeverine0:19:0616132792+1179
10430VALETTEMarion0:19:0718972790+893
9143PORTELouise0:19:2018942758+864
20802HIDOUXLéa0:21:1628982507-391
10411LELOUPNathalie0:22:0602413N/A
23384BASSETFiona0:22:08N/A2409N/A
22216LECOEUCHECharlotte0:22:2302382N/A
15276VERDINAlix0:22:4026142353-261
22445BOLLATOValentine 0:22:49N/A2337N/A
13877PIBAROTApolline0:25:00N/A2133N/A
19136TANTARTDelphine0:25:1240442116-1928
19894DEFIXJulia0:26:5021351987-148
23427BULLIERAlisson0:29:05N/A1834N/A
19129JACQUOTMarie0:30:1225211766-755
12609PRATCharline0:31:1815831704+121
11328GRAUERHeloiseN/A24520-2452
15847BACKSCHEIDEREmilieN/A51380-5138
12045CHAILLARDDanaN/A17570-1757

  Indice de confiance du circuit (moyenne des différences entre CN et score sur la course des 3 à 10 premiers) : 192






 Retour